Location: ?
(35.4064°N, 139.3593°E)
Time: 15:20:31
(UTC+00:00)

CZ-2C R/B - Visible Passes

Search period start: 12 July 2024 00:00
Search period end: 22 July 2024 00:00
Orbit: 784 x 868 km, 98.3° (Epoch: 12 July)

Date Brightness Start Highest point End Pass type
(mag) Time Alt. Az. Time Alt. Az. Time Alt. Az.
12 Jul 5.3 15:12:07 10° E 15:13:48 11° ENE 15:15:30 10° NE visible
12 Jul 2.6 16:52:20 66° S 16:53:11 87° WSW 16:58:48 10° NNW visible
13 Jul 3.0 16:33:07 52° ESE 16:34:11 63° ENE 16:39:44 10° N visible
13 Jul 4.4 18:14:35 15° W 18:14:48 15° W 18:17:48 10° WNW visible
14 Jul 3.7 16:13:54 36° ESE 16:15:14 42° ENE 16:20:29 10° N visible
14 Jul 3.9 17:55:22 22° W 17:55:35 22° W 17:59:53 10° NW visible
15 Jul 4.3 15:54:40 24° E 15:56:21 29° ENE 16:01:04 10° N visible
15 Jul 3.4 17:36:09 34° WSW 17:36:24 34° W 17:41:27 10° NNW visible
16 Jul 4.8 15:35:27 16° E 15:37:31 20° ENE 15:41:24 10° NNE visible
16 Jul 2.9 17:16:56 50° WSW 17:17:17 51° W 17:22:45 10° NNW visible
17 Jul 5.2 15:16:15 10° E 15:18:44 13° ENE 15:21:13 10° NE visible
17 Jul 2.6 16:57:44 71° SSW 16:58:13 78° WSW 17:03:50 10° NNW visible
18 Jul 2.8 16:38:31 64° ESE 16:39:12 72° ENE 16:44:48 10° N visible
18 Jul 4.5 18:20:00 13° W 18:20:00 13° W 18:22:16 10° WNW visible
19 Jul 3.4 16:19:19 44° E 16:20:14 48° ENE 16:25:36 10° N visible
19 Jul 4.1 18:00:47 20° W 18:00:47 20° W 18:04:39 10° NW visible
20 Jul 4.1 16:00:06 29° E 16:01:19 32° ENE 16:06:14 10° N visible
20 Jul 3.6 17:41:35 30° W 17:41:35 30° W 17:46:19 10° NW visible
21 Jul 4.6 15:40:54 20° E 15:42:28 22° ENE 15:46:39 10° NNE visible
21 Jul 3.1 17:22:23 45° W 17:22:23 45° W 17:27:41 10° NNW visible
